#timestamp,LO_Frequency,Hit,StdDev 
1551254415.9,286047005.4,N
1551254435.7,286047005.9,N
1551254455.5,286047003.8,N
1551254475.4,286047002.5,N
1551254495.2,286047001.0,N
1551254515.1,286046999.8,N
1551254516.0,286046999.8,N
1551254535.8,286047000.5,N
1551254555.6,286047001.1,N
1551254575.5,286046998.5,N
1551254595.3,286046998.8,N
1551254615.1,286046998.4,N
1551254635.9,286046999.3,N
1551254655.7,286046999.4,N
1551254675.6,286046998.1,N
1551254695.4,286047000.2,N
1551254715.2,286047002.3,N
1551254735.1,286047002.2,N
1551254736.0,286047002.2,N
1551254755.8,286047001.0,N
1551254775.7,286047001.4,N
1551254795.5,286047001.3,N
1551254815.3,286046999.7,N
1551254835.2,286047002.8,N
1551254855.0,286047000.3,N
1551254855.9,286047000.3,N
1551254875.7,286046998.7,N
1551254895.6,286046997.2,N
1551254915.4,286046995.1,N
1551254935.3,286046995.1,N
1551254955.1,286046997.1,N
1551254956.0,286046997.1,N
1551254975.8,286046996.5,N
1551254995.7,286046999.4,N
1551255015.5,286046994.9,N
1551255035.4,286046997.7,N
1551255055.2,286046997.0,N
1551255075.0,286046997.3,N
1551255075.9,286046997.3,N
1551255095.8,286046996.7,N
1551255115.6,286046997.2,N
1551255135.4,286047001.1,N
1551255155.3,286046998.2,N
1551255175.1,286046998.3,N
1551255195.9,286046998.6,N
1551255215.7,286046998.3,N
1551255235.5,286046996.7,N
1551255255.4,286046996.8,N
1551255275.2,286046994.9,N
1551255295.1,286046999.2,N
1551255296.0,286046999.2,N
1551255315.8,286046995.0,N
1551255335.6,286046994.9,N
1551255355.5,286046997.2,N
1551255375.3,286046999.4,N
1551255395.1,286046997.2,N
1551255415.9,286046997.7,N
1551255435.7,286046998.8,N
1551255455.6,286047001.2,N
1551255475.4,286047000.2,N
1551255495.2,286047000.1,N
1551255515.1,286046999.8,N
1551255516.0,286046999.8,N
1551255535.8,286047001.2,N
1551255555.7,286046998.3,N
1551255575.5,286047000.4,N
1551255595.3,286047004.1,N
1551255615.2,286047003.4,N
1551255635.0,286047005.6,N
1551255635.9,286047005.6,N
1551255655.7,286047003.1,N
1551255675.6,286047005.8,N
1551255695.4,286047003.4,N
1551255715.3,286047003.0,N
1551255735.1,286047005.9,N
1551255736.0,286047005.9,N
1551255755.8,286047003.9,N
1551255775.7,286047004.4,N
1551255795.5,286047004.2,N
1551255815.4,286047004.4,N
1551255835.2,286047004.0,N
1551255855.0,286047004.2,N
1551255855.9,286047004.2,N
1551255875.8,286047004.0,N
1551255895.6,286047004.1,N
1551255915.4,286047004.0,N
1551255935.3,286047003.5,N
1551255955.1,286047002.9,N
1551255975.9,286047003.4,N
1551255995.7,286047004.7,N
1551256015.5,286047005.5,N
1551256035.4,286047003.3,N
1551256055.2,286047005.5,Y
1551256075.1,286047000.0,P
1551256076.0,286047000.0,N
1551256095.8,286047000.8,N
1551256115.6,286046998.2,N
1551256135.5,286046998.1,N
1551256155.3,286046998.6,N
1551256175.1,286046998.6,N
1551256195.9,286047000.8,N
1551256215.7,286046998.4,N
1551256235.6,286046999.3,N
1551256255.4,286046997.2,N
1551256275.2,286046998.7,N
1551256295.1,286046999.6,N
1551256296.0,286046999.6,N
1551256315.8,286046996.8,N
1551256335.6,286046996.0,N
1551256355.5,286047011.9,Y
1551256375.3,286046996.5,P
1551256395.2,286046999.6,N
1551256415.9,286046997.8,N
1551256435.7,286046996.8,N
1551256455.6,286046999.4,N
1551256475.4,286047000.8,N
1551256495.3,286046998.3,N
1551256515.1,286046998.1,N
1551256516.0,286046998.1,N
1551256535.8,286047001.0,N
1551256555.7,286047000.8,N
1551256575.5,286047000.9,N
1551256595.3,286047000.5,N
1551256615.2,286047000.9,N
1551256635.0,286047000.3,N
1551256635.9,286047000.3,N
1551256655.8,286047002.0,N
1551256675.6,286047002.8,N
1551256695.4,286047002.6,N
1551256715.3,286047002.2,N
1551256735.1,286046999.9,N
1551256755.8,286047000.3,N
1551256775.7,286047001.1,N
1551256795.5,286046998.5,N
1551256815.4,286046996.9,N
1551256835.2,286046999.1,N
1551256855.0,286047001.1,N
1551256855.9,286047001.1,N
1551256875.8,286046998.4,N
1551256895.6,286046998.8,N
1551256915.5,286046998.9,N
1551256935.3,286047000.0,N
1551256955.1,286047002.7,N
1551256975.9,286047002.8,N
1551256995.7,286047002.8,N
1551257015.5,286046998.1,N
1551257035.4,286046999.9,N
1551257055.2,286047002.2,N
1551257075.1,286047002.4,N
1551257076.0,286047002.4,N
1551257095.8,286047001.9,N
1551257115.6,286046999.7,N
1551257135.5,286046999.7,N
1551257155.3,286047002.7,N
1551257175.2,286047002.4,N
1551257195.9,286047002.4,N
1551257215.7,286047002.6,N
1551257235.6,286047002.6,N
1551257255.4,286046999.9,N
1551257275.2,286047002.2,N
1551257295.1,286047002.5,N
1551257296.0,286047002.5,N
1551257315.8,286047001.4,N
1551257335.7,286047003.0,N
1551257355.5,286047002.0,N
1551257375.3,286047001.0,N
1551257395.2,286047000.2,N
1551257415.0,286047000.0,N
1551257415.9,286047000.0,N
1551257435.7,286046998.2,N
1551257455.6,286046998.8,N
1551257475.4,286046998.7,N
1551257495.3,286046996.6,N
1551257515.1,286046998.9,N
1551257535.8,286047000.4,N
1551257555.7,286047000.9,N
1551257575.5,286047002.8,N
1551257595.4,286046999.7,N
1551257615.2,286047003.5,N
1551257635.0,286047001.4,N
1551257635.9,286047001.4,N
1551257655.8,286047004.4,N
1551257675.6,286047005.0,N
1551257695.4,286047008.7,Y
1551257715.3,286047004.9,P
1551257735.1,286047007.1,P
1551257755.9,286047004.9,N
1551257775.7,286047006.9,Y
1551257795.5,286047000.2,P
1551257815.4,286046998.3,N
1551257835.2,286047000.1,N
1551257855.1,286047000.6,N
1551257856.0,286047000.6,N
1551257875.8,286047000.2,N
1551257895.6,286047002.3,N
1551257915.5,286047002.8,N
1551257935.3,286047002.6,N
1551257955.1,286047002.0,N
1551257975.9,286047002.2,N
1551257995.7,286047002.2,N
